Location: ????????
(41.2031°N, 22.5756°E)
Time: 05:43:33
(UTC+00:00)

CZ-2D R/B - Pass Details

Date: 01 December 2020
Orbit: 520 x 538 km, 97.4° (Epoch: 20 January)

Event Time Altitude Azimuth Distance (km) Brightness Sun altitude
Rises 16:14:02 0° 145° (SE) 2,646 6.6 -13.4°
Reaches altitude 10° 16:16:15 10° 136° (SE) 1,765 5.6 -13.8°
Maximum altitude 16:19:41 33° 72° (ENE) 913 3.9 -14.4°
Drops below altitude 10° 16:23:09 10° 7° (N) 1,787 5.7 -15.0°
Sets 16:25:24 0° 358° (N) 2,686 6.7 -15.4°
